Location: Asheville, NC
(35.6000°N, 82.5500°W)
Time: 06:36:24
(UTC-04:00)

Gurwin Techsat 1B - Visible Passes

Search period start: 22 July 2018 00:00
Search period end: 01 August 2018 00:00
Orbit: 813 x 813 km, 98.7° (Epoch: 21 July)

Date Brightness Start Highest point End Pass type
(mag) Time Alt. Az. Time Alt. Az. Time Alt. Az.
22 Jul 10.3 02:26:15 10° NE 02:29:45 24° E 02:29:45 24° E visible
22 Jul 9.4 04:05:44 10° N 04:10:30 35° WNW 04:10:57 34° W visible
23 Jul 10.9 02:04:38 10° ENE 02:06:35 14° E 02:06:35 14° E visible
23 Jul 8.8 03:42:35 10° N 03:47:46 58° WNW 03:47:46 58° WNW visible
24 Jul 8.7 03:19:41 10° NNE 03:24:36 76° NNE 03:24:36 76° NNE visible
24 Jul 10.7 05:02:54 10° NW 05:04:10 11° WNW 05:05:28 10° WNW visible
25 Jul 9.3 02:57:00 10° NNE 03:01:26 47° ENE 03:01:26 47° ENE visible
25 Jul 10.2 04:38:09 10° NNW 04:41:40 18° WNW 04:42:38 17° WNW visible
26 Jul 10.1 02:34:36 10° NE 02:38:15 28° ENE 02:38:15 28° ENE visible
26 Jul 9.7 04:14:32 10° N 04:19:03 29° WNW 04:19:27 29° WNW visible
27 Jul 10.8 02:12:41 10° NE 02:15:05 17° ENE 02:15:05 17° ENE visible
27 Jul 9.0 03:51:18 10° N 03:56:17 47° WNW 03:56:17 47° WNW visible
28 Jul 8.7 03:28:19 10° N 03:33:06 70° NNW 03:33:06 70° NNW visible
29 Jul 9.2 03:05:32 10° NNE 03:09:55 53° ENE 03:09:55 53° ENE visible
29 Jul 10.4 04:47:14 10° NNW 04:50:11 15° WNW 04:51:07 14° WNW visible
30 Jul 10.0 02:43:02 10° NNE 02:46:44 33° ENE 02:46:44 33° ENE visible
30 Jul 9.9 04:23:24 10° NNW 04:27:36 24° WNW 04:27:56 24° WNW visible
31 Jul 10.6 02:20:53 10° NE 02:23:33 20° ENE 02:23:33 20° ENE visible
31 Jul 9.3 04:00:03 10° N 04:04:45 39° WNW 04:04:45 39° WNW visible
